Preview of NWS' New Version of Forecast
This preview is not operational and should not be used for support decisions.
Latest weather observations around

Altoona - Blair County Airport (KAOO)

Using English Units (Switch to International System of Units)
Date/ Time (EDT) Wind (mph) Vis. (mi) Weather Sky Cond. Temp (°F) Rel. Humidity Wind Chill (°F) Heat Index (°F) Pressure Precip. (in)
Air Dwpt 6 hour Altimeter (inHg) Sea level (inHg) 1 hr 3 hr 6 hr
Max Min
Sep 21 21:53 Calm 10 Mostly Clear FEW065 70 61     73%     30.23 30.2      
Sep 21 20:53 Calm 10 Clear CLR 70 61     73%     30.21 30.19      
Sep 21 19:53 Calm 10 Mostly Clear FEW050 73 62     68%   73 30.2 30.19      
Sep 21 18:53 Calm 10 Partly Cloudy SCT055 80 63     56%   81 30.2 30.17      
Sep 21 17:53 NNE 6 10 Clear CLR 84 61     46%   84 30.19 30.17      
Sep 21 16:53 3 10 Mostly Cloudy BKN050 84 63     49%   85 30.19 30.16      
Sep 21 15:53 NNW 5 10 Mostly Clear FEW050 FEW070 82 62     51%   83 30.19 30.17      
Sep 21 14:53 Calm 10 Clear CLR 83 62     49%   84 30.21 30.19      
Sep 21 13:53 Calm 10 Mostly Cloudy BKN047 81 61     51%   82 30.23 30.21      
Sep 21 12:53 Calm 10 Clear CLR 80 61     52%   81 30.25 30.22      
Sep 21 11:53 SSW 3 10 Clear CLR 77 60     56%   77 30.27 30.25      
Sep 21 10:53 SSW 6 10 Clear CLR 72 58     61%   72 30.28 30.26      
Sep 21 09:53 Calm 10 Clear CLR 68 57     68%     30.28 30.27      
Sep 21 08:53 Calm 7 Clear CLR 63 55     75%     30.29 30.28      
Sep 21 07:53 Calm 4 Fog/Mist CLR 56 52     87%     30.28 30.27      
Sep 21 06:53 Calm 6 Fog/Mist CLR 53 51     93%     30.27 30.26      
Sep 21 05:53 Calm 5 Fog/Mist CLR 53 50     89%     30.26 30.24      
Sep 21 04:53 Calm 5 Fog/Mist FEW050 54 51     90%     30.25 30.23      
Sep 21 03:53 Calm 10 Clear CLR 56 52     87%     30.25 30.23      
Sep 21 02:53 S 3 5 Fog/Mist FEW055 55 52     89%     30.25 30.24      
Sep 21 01:53 Calm 9 Mostly Clear FEW050 56 52     87%     30.25 30.24      
Sep 21 00:53 Calm 10 Clear CLR 57 52     83%     30.25 30.24      
Sep 20 23:53 Calm 10 Clear CLR 57 51     81%     30.25 30.24      
Sep 20 22:53 Calm 10 Clear CLR 59 52     78%     30.25 30.24      
Sep 20 21:53 Calm 10 Clear CLR 60 53     78%     30.25 30.24      
Sep 20 20:53 ENE 3 10 Clear CLR 62 53     72%     30.23 30.23      
Sep 20 19:53 Calm 10 Clear   65 53     65%     30.22 30.22      
Sep 20 18:53 S 3 10 Clear CLR 73 54     51%   72 30.22 30.21      
Sep 20 17:53 ESE 3 10 Clear   79 54     42%   79 30.21 30.19      
Sep 20 16:53 3 10 Clear CLR 79 52     39%   78 30.2 30.19      
Sep 20 15:53 3 10 Clear CLR 79 51     38%   78 30.21 30.19      
Sep 20 14:53 3 10 Clear CLR 78 52     40%   77 30.22 30.21      
Sep 20 13:53 Calm 10 Clear CLR 76 52     43%   75 30.24 30.23      
Sep 20 12:53 3 10 Clear CLR 74 52     46%   73 30.26 30.25      
Sep 20 11:53 W 6 10 Clear CLR 70 52     53%     30.28 30.27      
Sep 20 10:53 3 10 Clear CLR 67 49     52%     30.29 30.28      
Sep 20 09:53 Calm 10 Clear CLR 64 50     60%     30.31 30.3      
Sep 20 08:53 Calm 10 Clear CLR 57 48     72%     30.31 30.3      
Sep 20 07:53 Calm 9 Clear CLR 51 46     83%     30.3 30.3      
Sep 20 06:53 W 3 8 Clear CLR 48 43     83% 47   30.28 30.28      
Sep 20 05:53 Calm 10 Clear CLR 47 43     86%     30.27 30.27      
Sep 20 04:53 Calm 10 Clear CLR 46 41     82%     30.27 30.27      
Sep 20 03:53 Calm 10 Clear CLR 48 42     80%     30.27 30.26      
Sep 20 02:53 Calm 10 Clear CLR 48 42     80%     30.27 30.27      
Sep 20 01:53 S 3 10 Clear CLR 49 43     80% 48   30.27 30.27      
Sep 20 00:53 SSW 5 10 Clear CLR 51 43     74%     30.27 30.27      
Sep 19 23:53 Calm 10 Clear CLR 52 44     74%     30.29 30.29      
Sep 19 22:53 S 6 10 Clear CLR 57 44     62%     30.29 30.28      
Sep 19 21:53 SSW 7 10 Clear CLR 54 44     69%     30.29 30.28      
Sep 19 20:53 SSE 5 10 Clear CLR 58 45     62%     30.29 30.28      
Sep 19 19:53 SSE 5 10 Clear CLR 58 45     62%     30.27 30.27      
Sep 19 18:53 SSE 5 10 Clear CLR 65 45     48%     30.27 30.27      
Sep 19 17:53 SSE 7 10 Clear CLR 70 45     41%     30.28 30.27      
Sep 19 16:53 S 6 10 Clear CLR 70 45     41%     30.28 30.27      
Sep 19 15:53 S 5 10 Clear CLR 69 46     44%     30.29 30.28      
Sep 19 14:53 S 7 10 Clear CLR 69 47     45%     30.31 30.3      
Sep 19 13:53 S 9 10 Mostly Clear FEW039 68 47     47%     30.32 30.31      
Sep 19 12:53 7 10 Clear CLR 66 49     54%     30.33 30.32      
Sep 19 11:53 SSE 6 10 Mostly Cloudy BKN032 64 48     56%     30.34 30.34      
Sep 19 10:53 SSW 9 10 Mostly Cloudy FEW023 BKN031 61 49     64%     30.35 30.35      
Sep 19 09:53 S 6 10 Mostly Cloudy SCT023 BKN029 61 52     72%     30.35 30.35      
Sep 19 09:35 SSE 8 10 Mostly Cloudy FEW020 BKN029 59 51     75%     30.34        
Sep 19 08:53 SE 6 10 Mostly Cloudy FEW014 BKN031 57 51     81%     30.34 30.34      
Sep 19 08:26 SSE 3 10 Mostly Cloudy SCT014 BKN031 56 50     80%     30.33        
Sep 19 07:53 Calm 10 Cloudy BKN013 OVC029 56 50     80%     30.33 30.33      
Sep 19 07:39 Calm 10 Cloudy BKN014 OVC028 56 50     80%     30.32        
Notice The following observation data may not be complete
Sep 19 06:53 SE 3 10 Cloudy FEW017 OVC026   50      %     30.31 30.3      
Notice The following observation data may not be complete
Sep 19 05:53 S 7 10 Cloudy OVC016   51      %     30.3 30.29      
Notice The following observation data may not be complete
Sep 19 05:42 SSE 9 10 Mostly Cloudy BKN015   50      %     30.3        
Notice The following observation data may not be complete
Sep 19 04:53 ESE 5 10 Clear CLR   46      %     30.3 30.28      
Sep 19 03:53 SE 3 10 Clear CLR 48 43     83% 47   30.29 30.28      
Sep 19 02:53 Calm 10 Clear CLR 47 43     86%     30.29 30.29      
Sep 19 01:53 Calm 10 Clear CLR 49 43     80%     30.29 30.28      
Sep 19 00:53 ENE 3 10 Clear CLR 52 43     71%     30.28 30.27      
Sep 18 23:53 E 6 10 Clear CLR 51 44     77%     30.28 30.27      
Notice The following observation data may not be complete
Sep 18 22:53 ENE 5 10 Clear CLR   42      %     30.27 30.26      
Sep 18 21:53 ESE 5 10 Clear CLR 54 44     69%     30.26 30.26      
Sep 18 20:53 ENE 3 10 Clear CLR 57 44     62%     30.26 30.26      
Sep 18 19:53 ENE 3 10 Clear CLR 60 44     55%     30.26 30.25      
May 15 14:53 WNW 15 1.75 Thunderstorms and Rain FEW043 BKN065 OVC080 72 64     76%   72 29.89 29.87 0    
May 14 10:49 Calm 10 Mostly Cloudy SCT004 BKN033 70 64     83%     30.03        
Notice The following observation data may not be complete
May 13 22:18   10 Cloudy OVC004          %              
May 12 18:46   7 Light Rain SCT031 BKN060 OVC100 68 63     84%     30.09   0    
May 12 17:17 NNW 6 1.75 Thunderstorms and Heavy Rain SCT045 BKN070 OVC100 69 62     78%     30.01   0    
May 12 16:19 NW 22 1.5 Thunderstorms and Rain FEW019 BKN070 OVC090 72 61     68%   72 30   0    
May 12 08:53 WSW 5 10 Clear CLR 57 48     72%     30.09 30.09      
May 12 02:53 NE 10 10 Light Rain BKN055 OVC100 53 47     80%     30.09 30.08 0    
May 12 01:53   10 Cloudy FEW048 BKN060 OVC100 55 46     72%     30.06 30.04 0   0
May 12 01:34 NE 6 10 Cloudy SCT045 BKN060 OVC070 55 45     69%     30.11   0    
May 12 01:09 NE 13 10 Cloudy BKN045 OVC055 57 44     62%     30.1        
May 11 21:53 NE 3 10 Partly Cloudy SCT090 59 42     53%     30.09 30.08      
Jun 11 15:53 WSW 11 10 Clear CLR 86 57     37%   85 30.13 30.1      
Jun 11 07:53 SSW 9 10 Clear CLR 72 60     66%   72 30.17 30.14      
Jun 11 02:53 SSW 7 10 Clear CLR 65 58     78%     30.11 30.07      
Jun 10 20:53 WSW 3 10 Clear CLR 76 59     56%   76 30.06 30.03      
Jun 10 02:53 WSW 6 10 Cloudy BKN075 OVC095 64 54     70%     29.99 29.96      
Jun 08 17:53 N 3 10 Cloudy OVC075 68 47     47%     29.9 29.89      
Jun 07 17:53 ENE 6 10 Cloudy OVC039 59 52     78%     30.05 30.05      
Jun 07 17:29 NNE 6 10 Cloudy SCT030 OVC037 59 52     78%     30.05        
Jun 07 14:53 NE 9 10 Cloudy BKN016 OVC024 59 53     81%     30.03 30.03      
Jun 07 09:53 N 9 8 Light Rain OVC009 54 52     93%     30.01 30 0